עמוד ראשי
METAR-TAF:

METAR-TAF

שדות תעופה :

Acajutla, אל סלוודור

קו רוחב: 13-34N, קו אורך: 089-50W, גובה: 15מטר

תצפית מזג אוויר נוכחית

הדו"ח נערך לפני 1 שעות ו 46דקות, בשעה 19:50 UTC
רוח 16קשר מכיוון מערב
טמפרטורת 31 צלסיוס
לחות 89%
לחץ 1007 hPa
ראות 10 קילומטר או יותר
עננים פזורים בגובה 3000רגל

METAR: MSAC 141950Z 27016KT 9999 SCT030 31/29 Q1007 A2975

זמן: 15:36 (21:36 UTC)


TAF: חסר

תצפיות ותחזיות מזג אוויר לגבי יותר מ- 4,000 שדות תעופה ברחבי העולם. דוחות METAR ו- TAF.

התחנות הזמינות מסומנות בנקודות צהובות ואדומות על גבי המפה.

העבר את העכבר לנקודה הצבעונית על מנת לראות את שם התחנה.

לאחר מכן, לחץ כדי לראות את תוכן ואת תחזיות מזג האוויר.

כדי לשנות את המפה: לחץ על הכפתורים הירוקים עם הפלוס השחור כדי להתקרב; על הכפתור הירוק עם המקף כדי להתרחק; או בחיצים הירוקים למפות סמוכות.


METAR-TAF: